Regional Weather Roundup
Issued by NWS Goodland, KS

Home | Current Version | Previous Version | Text Only | Print | Product List | Glossary Off
Versions: 1 2 3 4 5 6 7 8 9 10 11 12 13 14 15 16 17 18 19 20 21 22 23 24 25 26 27 28 29 30 31 32 33 34 35 36 37 38 39 40 41 42 43 44 45 46 47 48 49 50

000
ASUS43 KGLD 250559
RWRGLD

GOODLAND FORECAST AREA HOURLY WEATHER ROUNDUP
NATIONAL WEATHER SERVICE GOODLAND KS
1200 AM MDT MON JUL 25 2016

...OFFICIAL OBSERVATIONS...

CITY           SKY/WX    TMP DP  RH WIND       PRES   REMARKS
GOODLAND KS    CLOUDY    65  63  93 E9        30.16F
HILL CITY KS   CLOUDY    74  59  59 NE9       30.09F
IMPERIAL NEB   CLOUDY    68  58  70 NE7       30.16R
MCCOOK NEB     CLOUDY    74  58  57 NE38G49   30.09F
AKRON CO       CLOUDY    62  53  72 SE15      30.24S
BURLINGTON CO  CLOUDY    64  57  78 E12       30.21F
LIMON CO       CLOUDY    59  55  87 SE7       30.29S
$$

...UNOFFICIAL OBSERVATIONS...

CITY           SKY/WX    TMP DP  RH WIND       PRES   REMARKS
COLBY KS       RAIN      68  68 100 SW9       30.22F
LENORA KS        N/A     71  32  23 MISG        N/A
NORTON KS      CLEAR     70  54  56 CALM      30.09F
SHARON SPRINGS   N/A     65  63  92 NE18G31     N/A
KIT CARSON CO    N/A     64  58  81 MISG        N/A
YUMA CO          N/A     63  57  81 S8G18       N/A
$$



USA.gov is the U.S. government's official web portal to all federal, state and local government web resources and services.